Location: Dana
(41.8364°N, 106.7042°W)
Time: 17:50:56
(UTC+00:00)

Vanguard 3 - Pass Details

Date: 18 May 2026
Orbit: 507 x 3204 km, 33.3° (Epoch: 9 June)

Event Time Altitude Azimuth Distance (km) Brightness Sun altitude
Rises 16:35:45 0° 186° (S) 5,471 11.5 51.8°
Reaches altitude 10° 16:40:39 10° 169° (S) 4,930 11.6 52.6°
Maximum altitude 16:49:55 19° 131° (SE) 4,849 12.1 54.1°
Drops below altitude 10° 17:00:57 10° 94° (E) 6,057 12.2 55.9°
Sets 17:07:57 0° 80° (E) 7,156 12.3 57.0°
